Change the Weather History Date:

Sunday, October 20, 2013

  Actual Average Record
Temperature  
Mean Temperature 52 °F -  
Max Temperature 68 °F 66 °F 90 °F (1920)
Min Temperature 39 °F 42 °F 28 °F (1966)
Degree Days  
Heating Degree Days 12    
Growing Degree Days 2 (Base 50)    
Moisture  
Dew Point 41 °F    
Average Humidity 70    
Maximum Humidity 89    
Minimum Humidity 39    
Precipitation  
Precipitation 0.00 in - - ()
Sea Level Pressure  
Sea Level Pressure 30.02 in    
Wind  
Wind Speed 4 mph (SSW)    
Max Wind Speed 14 mph    
Max Gust Speed 22 mph    
Visibility 10 miles    
Events      
Averages and records for this station are not official NWS values.
T = Trace of Precipitation, MM = Missing Value Source: NWS Daily Summary

Daily Weather History Graph

Daily Weather History Graph

Search for Another Location

Airport or City:

Trip Planner

Search our weather history database for the weather conditions in past years. The results will help you decide how hot, cold, wet, or windy it might be!

Date:

Astronomy

Oct. 20, 2013 Rise Set
Actual Time 7:13 AM CDT 6:17 PM CDT
Civil Twilight 6:47 AM CDT 6:44 PM CDT
Nautical Twilight 6:17 AM CDT 7:14 PM CDT
Astronomical Twilight 5:47 AM CDT 7:44 PM CDT
Moon 7:29 PM CDT (10/20) 8:48 AM CDT (10/20)
Length of Visible Light 11h 56m
Length of Day
11h 04m
Full, 97% of the Moon is Illuminated
Oct 20
Full
Oct 26
Last Quarter
Nov 3
New
Nov 9
First Quarter
Nov 17
Full

Hourly Weather History & Observations

Time (CDT) Temp. Windchill Dew Point Humidity Pressure Visibility Wind Dir Wind Speed Gust Speed Precip Events Conditions
12:53 AM 43.0 °F - 39.9 °F 89% 30.05 in 8.0 mi Calm Calm - N/A   Clear
1:53 AM 42.1 °F 40.2 °F 39.0 °F 89% 30.03 in 8.0 mi SSW 3.5 mph - N/A   Clear
2:53 AM 42.1 °F - 37.9 °F 85% 30.03 in 10.0 mi Calm Calm - N/A   Clear
3:53 AM 41.0 °F - 37.9 °F 89% 30.02 in 8.0 mi Calm Calm - N/A   Clear
4:53 AM 41.0 °F - 37.9 °F 89% 30.02 in 10.0 mi Calm Calm - N/A   Clear
5:53 AM 39.9 °F - 37.0 °F 89% 30.04 in 10.0 mi Calm Calm - N/A   Clear
6:53 AM 39.9 °F - 37.0 °F 89% 30.04 in 10.0 mi Calm Calm - N/A   Clear
7:53 AM 42.1 °F - 39.0 °F 89% 30.06 in 9.0 mi Calm Calm - N/A   Clear
8:53 AM 48.0 °F - 43.0 °F 83% 30.07 in 10.0 mi SSW 5.8 mph - N/A   Clear
9:53 AM 53.1 °F - 44.1 °F 71% 30.07 in 10.0 mi SSW 12.7 mph - N/A   Clear
10:53 AM 59.0 °F - 44.1 °F 58% 30.07 in 10.0 mi SSW 11.5 mph 19.6 mph N/A   Clear
11:53 AM 63.0 °F - 42.1 °F 46% 30.06 in 10.0 mi SW 13.8 mph 20.7 mph N/A   Clear
12:53 PM 64.9 °F - 43.0 °F 45% 30.03 in 10.0 mi SSW 12.7 mph 21.9 mph N/A   Clear
1:53 PM 66.9 °F - 44.1 °F 44% 30.01 in 10.0 mi SSW 11.5 mph 19.6 mph N/A   Clear
2:53 PM 66.9 °F - 41.0 °F 39% 29.99 in 10.0 mi SSW 12.7 mph - N/A   Clear
3:53 PM 66.9 °F - 41.0 °F 39% 29.98 in 10.0 mi South 12.7 mph - N/A   Clear
4:53 PM 66.0 °F - 42.1 °F 42% 29.97 in 10.0 mi SSW 9.2 mph - N/A   Clear
5:53 PM 62.1 °F - 44.1 °F 52% 29.96 in 10.0 mi South 5.8 mph - N/A   Clear
6:53 PM 57.0 °F - 44.1 °F 62% 29.98 in 10.0 mi South 3.5 mph - N/A   Clear
7:53 PM 53.1 °F - 44.1 °F 71% 29.98 in 10.0 mi South 5.8 mph - N/A   Clear
8:53 PM 53.1 °F - 43.0 °F 69% 29.99 in 10.0 mi South 4.6 mph - N/A   Clear
9:53 PM 51.1 °F - 43.0 °F 74% 29.99 in 10.0 mi South 5.8 mph - N/A   Clear
10:53 PM 46.9 °F - 42.1 °F 83% 30.00 in 10.0 mi Calm Calm - N/A   Clear
11:53 PM 46.0 °F - 43.0 °F 89% 29.99 in 10.0 mi Calm Calm - N/A   Clear